Location: Wyalusing
(42.9440°N, 91.1410°W)
Time: 13:11:26
(UTC-06:00)

ISS - Visible Passes

Search period start: 20 November 2017 00:00
Search period end: 30 November 2017 00:00
Orbit: 402 x 407 km, 51.6° (Epoch: 21 November)

Date Brightness Start Highest point End Pass type
(mag) Time Alt. Az. Time Alt. Az. Time Alt. Az.
25 Nov -1.5 18:24:44 10° S 18:25:39 15° S 18:25:39 15° S visible
26 Nov -1.4 17:34:20 10° SE 17:35:05 11° SE 17:35:49 10° ESE visible
26 Nov -0.9 19:07:47 10° SW 19:08:30 16° SW 19:08:30 16° SW visible
27 Nov -3.3 18:15:37 10° SW 18:18:33 44° SSE 18:18:33 44° SSE visible
28 Nov -2.3 17:23:49 10° SSW 17:26:32 24° SE 17:28:32 14° E visible
28 Nov -1.4 18:59:40 10° WSW 19:01:11 24° W 19:01:11 24° W visible
29 Nov -3.9 18:07:09 10° WSW 18:10:26 79° NNW 18:11:05 53° NE visible
